Regional Weather Roundup
Issued by NWS

Home | Current Version | Previous Version | Graphics & Text | Print | Product List | Glossary On
Versions: 1 2 3 4 5 6 7 8 9 10 11 12 13 14 15 16 17 18 19 20 21 22 23 24 25 26 27 28 29 30 31 32 33 34 35 36 37 38 39 40 41 42 43 44 45 46 47 48 49 50
000
ASUS43 KLSX 011107
RWRMO

WEATHER SUMMARY FOR MISSOURI
NATIONAL WEATHER SERVICE SPRINGFIELD MO
600 AM CDT SAT OCT 01 2016

NOTE: "FAIR" INDICATES FEW OR NO CLOUDS BELOW 12,000 FEET WITH NO
       SIGNIFICANT WEATHER AND/OR OBSTRUCTIONS TO VISIBILITY.
       CURRENT SKY AND/OR WEATHER CONDITIONS ARE NOT AVAILABLE FOR
       CHILLICOTHE AND FARMINGTON.

MOZ001>031-035>038-043-044-053-054-011200-
...NORTHERN AND WESTERN MISSOURI...

CITY           SKY/WX    TMP DP  RH WIND       PRES   REMARKS
KANSAS CTY INT CLOUDY    56  53  90 N5        30.13R
KANSAS C DTWN  CLOUDY    58  55  90 CALM      30.12S
LEE`S SUMMIT   CLOUDY    57  54  89 CALM      30.12S
ST JOSEPH      CLOUDY    56  55  97 CALM      30.13S
CHILLICOTHE      N/A     60  57  89 CALM      30.12S
KIRKSVILLE     CLOUDY    59  56  89 N6        30.09S

$$
MOZ066>068-077>081-088>096-101>105-011200-
...SOUTHWEST MISSOURI...

CITY           SKY/WX    TMP DP  RH WIND       PRES   REMARKS
SPRINGFIELD    CLEAR     50  47  89 CALM      30.09S
JOPLIN         CLEAR     50  50 100 CALM      30.11R FOG
BRANSON        MOCLDY    54  54 100 SW3       30.11S

$$
MOZ032>034-039>042-045>050-055>058-069>072-011200-
...CENTRAL MISSOURI...

CITY           SKY/WX    TMP DP  RH WIND       PRES   REMARKS
COLUMBIA       CLOUDY    59  57  93 NW8       30.08S
JEFFERSON CITY CLOUDY    58  56  93 NW3       30.08S
ROLLA          CLOUDY    57  56  96 W8        30.07R
SEDALIA        CLOUDY    56  54  93 NW5       30.12R
WHITEMAN AFB   CLOUDY    56  56 100 N1        30.10R
OSAGE BEACH    CLOUDY    58  57  97 CALM      30.11R

$$
MOZ051-052-059>065-011200-
...EAST CENTRAL MISSOURI...

CITY           SKY/WX    TMP DP  RH WIND       PRES   REMARKS
ST LOUIS INTL  CLOUDY    63  59  87 NW7       30.04R
SPIRIT OF STL  CLOUDY    62  60  93 NW3       30.03S
ST CHARLES     CLOUDY    62  61  96 NW7       30.02S

$$
MOZ072>076-082>087-097>100-106>115-011200-
...SOUTH CENTRAL AND SOUTHEAST MISSOURI...

CITY           SKY/WX    TMP DP  RH WIND       PRES   REMARKS
CAPE GIRARDEAU MOCLDY    59  57  93 CALM      30.02S
FARMINGTON     CLOUDY    60  58  92 NW7       30.05R
POPLAR BLUFF   CLEAR     54  53  97 CALM      30.06R
WEST PLAINS    CLEAR     52  49  89 CALM      30.11R

$$



USA.gov is the U.S. government's official web portal to all federal, state and local government web resources and services.